DW4782 Asprovalta GR current weather conditions

sailwx.info

Wind from 259 at 1 knots gusting 3

Air temperature 11.7° C
Dewpoint 6.0° C

Last reported at 2015-Feb-01 18:50 UTC.
Time now 2015-Feb-01 19:43 UTC

Location: N 40°43' E 023°43'.
View on Google Maps.

See reports from other nearby stations

  
Tides and Currents Weather Stations Pressure Air Temp Water Temp Dewpoint Dewpoint Depression Visibility Wind Speed Wind Dir Waves Ship Positions
date/time (UTC)wind fromknots sea level pressurealtimeterstation pressurevisibilityair tempwater tempwave heightnotes
2015-Feb-01 18:50 259 1 gusting 3 11.7
2015-Feb-01 18:40 258 3 gusting 5 11.7
2015-Feb-01 18:30 273 2 gusting 7 11.7
2015-Feb-01 18:20 249 2 gusting 5 12.2
2015-Feb-01 18:10 258 2 gusting 5 12.2
2015-Feb-01 18:00 266 1 gusting 4 12.2
2015-Feb-01 17:50 232 1 gusting 4 12.2
2015-Feb-01 17:40 224 1 gusting 3 12.2
2015-Feb-01 17:30 229 1 gusting 2 12.2
2015-Feb-01 17:20 217 1 gusting 3 12.8
2015-Feb-01 17:10 206 0 gusting 3 12.8
2015-Feb-01 17:00 244 0 gusting 2 12.8
2015-Feb-01 16:50 238 0 gusting 0 13.3
2015-Feb-01 16:40 236 1 gusting 3 13.3
2015-Feb-01 16:30 209 0 gusting 3 13.3
2015-Feb-01 16:20 212 0 gusting 3 13.3
2015-Feb-01 16:10 245 0 gusting 3 13.9
2015-Feb-01 16:00 258 0 gusting 5 14.4
2015-Feb-01 15:50 226 1 gusting 2 14.4
2015-Feb-01 15:40 222 1 gusting 3 15.0
2015-Feb-01 15:30 238 3 gusting 6 15.0
2015-Feb-01 15:20 252 2 gusting 6 15.0
2015-Feb-01 15:10 266 3 gusting 6 15.6
2015-Feb-01 15:00 274 3 gusting 9 15.6
2015-Feb-01 14:50 271 3 gusting 6 15.6
2015-Feb-01 14:40 257 4 gusting 7 16.1
2015-Feb-01 14:30 253 5 gusting 8 16.1
2015-Feb-01 14:20 242 2 gusting 5 16.1
2015-Feb-01 14:10 235 4 gusting 6 16.1
2015-Feb-01 14:00 234 4 gusting 10 16.1
2015-Feb-01 13:50 243 4 gusting 7 16.1
2015-Feb-01 13:40 240 3 gusting 6 16.1
2015-Feb-01 13:30 238 4 gusting 6 16.1
2015-Feb-01 13:20 243 4 gusting 8 15.6
2015-Feb-01 13:10 260 1 gusting 6 15.0
2015-Feb-01 13:00 238 1 gusting 5 15.6
2015-Feb-01 12:50 236 2 gusting 4 16.7
2015-Feb-01 12:40 247 2 gusting 7 17.2
2015-Feb-01 12:30 247 3 gusting 6 17.8
2015-Feb-01 12:20 254 4 gusting 7 17.8
2015-Feb-01 12:10 239 5 gusting 17 18.9
2015-Feb-01 12:00 246 4 gusting 9 19.4
2015-Feb-01 11:50 256 4 gusting 11 19.4
2015-Feb-01 11:40 270 3 gusting 6 19.4
2015-Feb-01 11:30 249 3 gusting 6 18.3
2015-Feb-01 11:10 236 4 gusting 9 17.8
2015-Feb-01 11:00 229 5 gusting 8 18.3
2015-Feb-01 10:50 230 4 gusting 6 18.3
2015-Feb-01 10:40 227 4 gusting 8 17.8
2015-Feb-01 10:30 228 5 gusting 8 17.8
2015-Feb-01 10:20 218 3 gusting 7 17.2
2015-Feb-01 10:10 225 4 gusting 6 17.8
2015-Feb-01 10:00 232 5 gusting 9 18.3
2015-Feb-01 09:50 242 6 gusting 11 18.3
2015-Feb-01 09:40 232 6 gusting 8 18.3
2015-Feb-01 09:30 228 6 gusting 12 18.3
2015-Feb-01 09:20 238 5 gusting 8 18.3
2015-Feb-01 09:10 231 5 gusting 9 18.3
2015-Feb-01 09:00 209 4 gusting 9 18.3
2015-Feb-01 08:50 217 3 gusting 7 17.8
2015-Feb-01 08:40 227 0 gusting 7 17.2
2015-Feb-01 08:30 16.7
2015-Feb-01 08:20 025 0 gusting 1 16.1
2015-Feb-01 08:10 051 0 gusting 1 15.0
2015-Feb-01 08:00 002 1 gusting 3 12.8
2015-Feb-01 07:50 065 12.2
2015-Feb-01 07:40 022 0 gusting 2 11.7
2015-Feb-01 07:30 120 11.7
2015-Feb-01 07:20 198 11.1
2015-Feb-01 07:10 201 10.6
2015-Feb-01 07:00 10.0
2015-Feb-01 06:50 9.4
2015-Feb-01 06:40 8.9
2015-Feb-01 06:30 264 8.9
2015-Feb-01 06:20 264 8.9
2015-Feb-01 06:10 8.9
2015-Feb-01 06:00 8.3
2015-Feb-01 05:50 8.9
2015-Feb-01 05:40 154 8.9
2015-Feb-01 05:30 258 8.9
2015-Feb-01 05:20 260 8.9
2015-Feb-01 05:10 234 8.9
2015-Feb-01 05:00 230 9.4
2015-Feb-01 04:50 9.4
2015-Feb-01 04:40 10.0
2015-Feb-01 04:30 10.0
2015-Feb-01 04:20 230 10.0
2015-Feb-01 04:10 234 10.0
2015-Feb-01 04:00 10.0
2015-Feb-01 03:50 9.4
2015-Feb-01 03:40 9.4
2015-Feb-01 03:30 8.9
2015-Feb-01 03:20 8.9
2015-Feb-01 03:10 8.9
2015-Feb-01 03:00 8.9
2015-Feb-01 02:50 8.9
2015-Feb-01 02:40 8.9
2015-Feb-01 02:30 8.3
2015-Feb-01 02:20 8.3
2015-Feb-01 02:10 8.3
2015-Feb-01 02:00 8.3
2015-Feb-01 01:50 8.3
2015-Feb-01 01:40 8.3
2015-Feb-01 01:30 8.3
2015-Feb-01 01:20 8.3
2015-Feb-01 01:10 8.3
2015-Feb-01 01:00 8.3
2015-Feb-01 00:50 8.3
2015-Feb-01 00:40 7.8
2015-Feb-01 00:30 7.8
2015-Feb-01 00:20 299 7.8
2015-Feb-01 00:10 7.8
2015-Feb-01 00:00 7.8
2015-Jan-31 23:50 7.8
2015-Jan-31 23:40 283 8.3
2015-Jan-31 23:30 8.3
2015-Jan-31 23:20 283 8.3
2015-Jan-31 23:10 283 8.3
2015-Jan-31 23:00 281 8.3
2015-Jan-31 22:50 8.3
2015-Jan-31 22:40 8.3
2015-Jan-31 22:30 8.3
2015-Jan-31 22:20 280 8.3
2015-Jan-31 22:10 8.3
2015-Jan-31 22:00 8.3
2015-Jan-31 21:50 280 8.3
2015-Jan-31 21:40 8.3
2015-Jan-31 21:30 8.9
2015-Jan-31 21:20 8.9
2015-Jan-31 21:10 8.9
2015-Jan-31 21:00 8.9
2015-Jan-31 20:30 8.9
2015-Jan-31 20:20 8.9
2015-Jan-31 20:10 280 8.9
2015-Jan-31 20:00 8.9
2015-Jan-31 19:50 8.9
2015-Jan-31 19:40 8.9
2015-Jan-31 19:30 8.9
2015-Jan-31 19:20 8.9
2015-Jan-31 19:10 8.9
2015-Jan-31 19:00 8.9
2015-Jan-31 18:50 283 8.9
2015-Jan-31 18:40 286 8.9
2015-Jan-31 18:30 255 8.9
2015-Jan-31 18:20 255 8.9
2015-Jan-31 18:10 251 8.9
2015-Jan-31 18:00 252 8.9
2015-Jan-31 17:50 8.9
2015-Jan-31 17:40 252 8.9
2015-Jan-31 17:30 255 0 gusting 2 8.9
2015-Jan-31 17:20 256 0 gusting 0 8.9
2015-Jan-31 17:10 8.9
2015-Jan-31 17:00 256 8.9
2015-Jan-31 16:50 253 8.9
2015-Jan-31 16:40 264 8.9
2015-Jan-31 16:30 307 0 gusting 2 8.9
2015-Jan-31 16:20 280 0 gusting 0 8.9
2015-Jan-31 16:10 254 0 gusting 3 8.9
2015-Jan-31 16:00 240 1 gusting 2 8.9
2015-Jan-31 15:50 246 0 gusting 3 8.9
2015-Jan-31 15:40 273 0 gusting 2 8.9
2015-Jan-31 15:30 249 1 gusting 6 8.9
2015-Jan-31 15:20 240 1 gusting 5 9.4
2015-Jan-31 15:10 196 1 gusting 1 9.4
2015-Jan-31 15:00 201 0 gusting 0 9.4
2015-Jan-31 14:50 247 0 gusting 1 9.4
2015-Jan-31 14:40 252 9.4
2015-Jan-31 14:30 243 0 gusting 2 9.4
2015-Jan-31 14:20 257 0 gusting 2 9.4
2015-Jan-31 14:10 232 10.0
2015-Jan-31 14:00 219 10.0
2015-Jan-31 13:50 187 10.0
2015-Jan-31 13:40 10.6
2015-Jan-31 13:30 10.6
2015-Jan-31 13:20 10.6
2015-Jan-31 13:10 10.6
2015-Jan-31 13:00 287 10.6
2015-Jan-31 12:50 10.6
2015-Jan-31 12:40 288 10.6
2015-Jan-31 12:30 289 0 gusting 2 10.6
2015-Jan-31 12:20 286 1 gusting 3 11.1
2015-Jan-31 12:10 302 1 gusting 4 11.1
2015-Jan-31 12:00 310 0 gusting 3 11.7
2015-Jan-31 11:50 331 11.7
2015-Jan-31 11:40 12.2
2015-Jan-31 11:30 12.2
2015-Jan-31 11:20 097 12.2
2015-Jan-31 11:10 12.2
2015-Jan-31 11:00 12.2
2015-Jan-31 10:50 096 0 gusting 0 12.2
2015-Jan-31 10:40 058 12.2
2015-Jan-31 10:30 270 12.2
2015-Jan-31 10:20 12.2
2015-Jan-31 10:10 12.2
2015-Jan-31 10:00 279 0 gusting 1 12.2
2015-Jan-31 09:50 340 12.2
2015-Jan-31 09:40 12.2
2015-Jan-31 09:30 12.2
2015-Jan-31 09:20 032 0 gusting 0 12.2
2015-Jan-31 09:10 12.2
2015-Jan-31 09:00 054 12.2
2015-Jan-31 08:50 267 12.2
2015-Jan-31 08:40 197 1 gusting 2 12.2
2015-Jan-31 08:30 189 1 gusting 4 12.2
2015-Jan-31 08:20 219 2 gusting 3 12.2
2015-Jan-31 08:10 249 1 gusting 7 12.2
2015-Jan-31 08:00 224 12.2
2015-Jan-31 07:50 231 1 gusting 3 12.2
2015-Jan-31 07:40 256 0 gusting 3 12.2
2015-Jan-31 07:30 248 1 gusting 3 12.2
2015-Jan-31 07:20 271 2 gusting 6 12.2
2015-Jan-31 07:10 269 2 gusting 5 11.7
2015-Jan-31 07:00 265 4 gusting 6 11.7
2015-Jan-31 06:50 276 4 gusting 6 11.7
2015-Jan-31 06:40 280 4 gusting 6 11.7
2015-Jan-31 06:30 277 5 gusting 10 12.2
2015-Jan-31 06:20 279 6 gusting 8 12.2
2015-Jan-31 06:10 244 5 gusting 9 12.2
2015-Jan-31 06:00 249 5 gusting 9 11.7
2015-Jan-31 05:50 245 2 gusting 7 10.6
2015-Jan-31 05:40 246 0 gusting 6 10.6
2015-Jan-31 05:30 274 10.6
2015-Jan-31 05:20 271 11.1
2015-Jan-31 05:10 11.1
2015-Jan-31 05:00 263 0 gusting 1 11.1
2015-Jan-31 04:50 242 0 gusting 4 11.1
2015-Jan-31 04:40 255 0 gusting 3 11.1
2015-Jan-31 04:30 258 2 gusting 5 11.1
2015-Jan-31 04:20 240 2 gusting 6 10.6
2015-Jan-31 04:10 251 1 gusting 6 10.6
2015-Jan-31 04:00 252 0 gusting 3 10.0
2015-Jan-31 03:50 323 0 gusting 3 10.0
2015-Jan-31 03:40 070 10.0
2015-Jan-31 03:30 10.6
2015-Jan-31 03:20 10.6
2015-Jan-31 03:10 237 10.6
2015-Jan-31 03:00 242 0 gusting 0 11.1
2015-Jan-31 02:50 264 0 gusting 2 11.1
2015-Jan-31 02:40 228 11.7
2015-Jan-31 02:30 010 11.7
2015-Jan-31 02:20 325 0 gusting 2 12.2
2015-Jan-31 02:10 12.2
2015-Jan-31 02:00 251 0 gusting 1 12.8
2015-Jan-31 01:50 249 1 gusting 3 13.3
2015-Jan-31 01:40 239 2 gusting 5 13.9
2015-Jan-31 01:30 223 2 gusting 5 14.4
2015-Jan-31 01:20 232 2 gusting 4 14.4
2015-Jan-31 01:10 224 3 gusting 4 14.4
2015-Jan-31 01:00 210 2 gusting 3 14.4
2015-Jan-31 00:50 196 1 gusting 6 14.4
2015-Jan-31 00:40 240 14.4
2015-Jan-31 00:30 202 1 gusting 4 14.4
2015-Jan-31 00:20 187 1 gusting 6 13.9
2015-Jan-31 00:10 185 0 gusting 0 13.9
2015-Jan-31 00:00 182 1 gusting 1 14.4
2015-Jan-30 23:50 138 3 gusting 7 14.4
2015-Jan-30 23:40 131 3 gusting 9 14.4
2015-Jan-30 23:30 140 1 gusting 4 14.4
2015-Jan-30 23:20 175 1 gusting 4 14.4
2015-Jan-30 23:10 128 3 gusting 9 14.4
2015-Jan-30 23:00 133 3 gusting 7 14.4
2015-Jan-30 22:50 162 3 gusting 13 14.4
2015-Jan-30 22:40 178 2 gusting 5 14.4
2015-Jan-30 22:30 141 3 gusting 6 14.4
2015-Jan-30 22:20 159 3 gusting 9 14.4
2015-Jan-30 22:10 174 5 gusting 10 14.4
2015-Jan-30 22:00 188 6 gusting 13 14.4
2015-Jan-30 21:50 189 4 gusting 10 14.4
2015-Jan-30 21:40 181 5 gusting 19 14.4
2015-Jan-30 21:30 190 5 gusting 9 14.4
2015-Jan-30 21:20 190 2 gusting 16 13.9
2015-Jan-30 21:10 150 1 gusting 4 13.9
2015-Jan-30 21:00 264 1 gusting 6 13.9
2015-Jan-30 20:50 048 0 gusting 0 13.9
2015-Jan-30 20:40 037 0 gusting 6 14.4
2015-Jan-30 20:30 093 1 gusting 4 14.4
2015-Jan-30 20:20 142 2 gusting 12 13.9
2015-Jan-30 20:10 174 2 gusting 6 13.9
2015-Jan-30 20:00 183 0 gusting 4 13.9
2015-Jan-30 19:50 269 0 gusting 1 13.3
2015-Jan-30 19:40 049 0 gusting 6 13.3
2015-Jan-30 19:30 358 1 gusting 4 13.3
2015-Jan-30 19:20 058 1 gusting 9 13.3
2015-Jan-30 19:10 341 0 gusting 2 13.3
2015-Jan-30 19:00 024 1 gusting 4 13.3